Regional Weather Roundup
Issued by NWS

Home | Current Version | Previous Version | Graphics & Text | Print | Product List | Glossary On
Versions: 1 2 3 4 5 6 7 8 9 10 11 12 13 14 15 16 17 18 19 20 21 22 23 24 25 26 27 28 29 30 31 32 33 34 35 36 37 38 39 40 41 42 43 44 45 46 47 48 49 50
000
ASUS43 KTOP 012308
RWRKS

WEATHER ROUNDUP FOR KANSAS
NATIONAL WEATHER SERVICE GOODLAND KS
600 PM CDT WED OCT 01 2014

NOTE:  "FAIR" INDICATES FEW OR NO CLOUDS BELOW 12,000 FEET WITH NO
SIGNIFICANT WEATHER AND/OR OBSTRUCTIONS TO VISIBILITY.

KSZ001>006-013>018-027>032-041>047-020000-
NORTHWEST KANSAS

CITY           SKY/WX    TMP DP  RH WIND       PRES   REMARKS
GOODLAND       MOSUNNY   73  39  29 S3        29.79S
HAYS           SUNNY     75  59  57 E7        29.73S
HILL CITY      MOSUNNY   80  48  32 E7        29.73S
RUSSELL        MOSUNNY   78  62  57 MISG      29.71S
$$

KSZ061>065-074>080-084>089-020000-
SOUTHWEST KANSAS

CITY           SKY/WX    TMP DP  RH WIND       PRES   REMARKS
DODGE CITY     SUNNY     80  54  40 N9        29.73R
GARDEN CITY    SUNNY     80  43  26 CALM      29.74R
GREAT BEND     SUNNY     77  64  65 NE8       29.71S
LIBERAL        SUNNY     82  39  21 CALM      29.75R
PRATT          SUNNY     84  50  30 SW3       29.69R
$$

KSZ066>073-081>083-090>101-020000-
SOUTHEAST KANSAS

CITY           SKY/WX    TMP DP  RH WIND       PRES   REMARKS
CHANUTE        MOSUNNY   78  71  79 SE9       29.70S
COFFEYVILLE    MOSUNNY   82  70  66 S9        29.68F
HUTCHINSON     MOSUNNY   87  53  31 SW13      29.67S
MEDICINE LODGE   N/A     90  45  21 SW12      29.64R
NEWTON         MOSUNNY   84  61  45 S10       29.69S
PARSONS        LGT RAIN  81  69  67 SE6       29.70F
WICHITA INTL   MOSUNNY   89  59  36 SW9       29.65R
WICHITA JABRA  PTSUNNY   89  59  36 SW8       29.65S
WICHITA MCCONL MOSUNNY   88  58  36 S9        29.65S
WINFIELD       SUNNY     90  61  37 S14       29.65S
$$

KSZ007>012-019>026-033>040-048>060-102>105-020000-
NORTHEAST KANSAS

CITY           SKY/WX    TMP DP  RH WIND       PRES   REMARKS
CONCORDIA      MOSUNNY   79  63  57 NE3       29.70S
EMPORIA        SUNNY     80  69  69 SE8       29.69S
LAWRENCE       PTSUNNY   81  67  62 SE8       29.71R
MANHATTAN      MOSUNNY   81  68  64 E7        29.67F
MARYSVILLE     SUNNY     81  55  41 CALM      29.69F
OLATHE IND     CLOUDY    72  65  78 S10       29.73F
OLATHE EXE     CLOUDY    69  67  93 SE12      29.73R
SALINA         SUNNY     81  67  62 N7        29.68F
TOPEKA BILLARD PTSUNNY   82  67  60 E8        29.69S
TOPEKA FORBES  PTSUNNY   82  67  60 SE6       29.70S
$$



USA.gov is the U.S. government's official web portal to all federal, state and local government web resources and services.